SCP
-0 -0 -0 -0 -0 -0 -0 -0 0 0 0 0 0 0 0 0 0 0 0 0 0 0 0 0 0 0 0 0 0 0 0 0 0 0 0 0 0 0 0 0 0 0 0 0 0 0 0 0 0
-0 -0 -0 -0 -0 -0 -0 -0 -0 0 0 0 0 0 0 0 0 0 0 0 0 0 0 0 0 0 0 0 0 0 0 0 0 0 0 0 0 0 0 0 0 0 0 0 0 0 0 0 0
-0 -0 -0 -0 -0 -0 -0 -0 -0 -0 -0 0 0 0 0 0 0 0 0 0 0 0 0 0 0 0 0 0 0 0 0 0 0 0 0 0 0 0 0 0 0 0 0 0 0 0 0 0 0
0 -0 -0 -0 -0 -0 -0 -0 -0 -0 0 0 0 0 0 0 0 0 0 0 0 0 0 0 0 0 0 0 0 0 0 0 0 0 0 0 0 0 0 0 0 0 0 0 0 0 0 0 0
0 0 0 -0 -0 -0 -0 -0 0 -0 0 0 0 0 0 0 0 0 0 0 0 0 0 0 0 0 0 0 0 0 0 0 0 0 0 0 0 0 0 0 0 0 0 0 0 0 0 0 0
-0 -0 -0 0 0 0 0 0 0 0 0 0 0 0 0 0 0 0 0 0 0 0 0 0 0 0 0 0 0 0 0 0 0 0 0 0 0 0 0 0 0 0 0 0 0 0 0 0 0
-0 -0 -0 0 0 0 0 0 0 0 0 0 0 0 0 0 0 0 0 0 0 0 0 0 0 0 0 0 0 0 0 0 0 0 0 0 0 0 0 0 0 0 0 0 0 0 0 0 0
-0 -0 -0 0 0 0 0 0 0 0 0 0 0 0 0 0 0 0 0 0 0 0 0 0 0 0 0 0 0 0 0 0 0 0 0 0 0 0 0 0 0 0 0 0 0 0 0 0 0
0 0 0 0 0 0 0 0 0 0 0 0 0 0 0 0 0 0 0 0 0 0 0 0 0 0 0 0 0 0 0 0 0 0 0 0 0 0 0 0 0 0 0 0 0 0 0 0 0
0 0 0 0 0 0 0 0 0 0 0 0 0 0 0 0 0 0 0 0 0 0 0 0 0 0 0 0 0 0 0 0 0 0 0 0 0 0 0 0 0 0 0 0 0 0 0 0 0
0 0 0 0 0 0 0 0 0 0 0 0 0 0 0 0 0 0 0 0 0 0 0 0 0 0 0 0 0 0 0 0 0 0 0 0 0 0 0 0 0 0 0 0 0 0 0 0 0
0 0 0 0 0 0 0 0 0 0 0 0 0 0 0 0 0 0 0 0 0 0 0 0 0 0 0 0 0 0 0 0 0 0 0 0 0 0 0 0 0 0 0 0 0 0 0 0 0
0 0 0 0 0 0 0 0 0 0 0 0 0 0 0 0 0 0 0 0 0 0 0 0 0 0 0 0 0 0 0 0 0 0 0 0 0 0 0 0 0 0 0 0 0 0 0 0 0
0 0 0 0 0 0 0 0 0 0 0 0 0 0 0 0 0 0 0 0 0 0 0 0 0 0 0 0 0 0 0 0 0 0 0 0 0 0 0 0 0 0 0 0 0 0 0 0 0
0 0 0 0 0 0 0 0 0 0 0 0 0 0 0 0 0 0 0 0 0 0 0 0 0 0 0 0 0 0 0 0 0 0 0 0 0 0 0 0 0 0 0 0 0 0 0 0 0
0 0 0 0 0 0 0 0 0 0 0 0 0 0 0 0 0 0 0 0 0 0 0 0 0 0 0 0 0 0 0 0 0 0 0 0 0 0 0 0 0 0 0 0 0 0 0 0 0
0 0 0 0 0 0 0 0 0 0 0 0 0 0 0 0 0 0 0 0 0 0 0 0 0 0 0 0 0 0 0 0 0 0 0 0 0 0 0 0 0 0 0 0 0 0 0 0 0
0 0 0 0 0 0 0 0 0 0 0 0 0 0 0 0 0 0 0 0 0 0 0 0 0 0 0 0 0 0 0 0 0 0 0 0 0 0 0 0 0 0 0 0 0 0 0 0 0
0 0 0 0 0 0 0 0 0 0 0 0 0 0 0 0 0 0 0 0 0 0 0 0 0 0 0 0 0 0 0 0 0 0 0 0 0 0 0 0 0 0 0 0 0 0 0 0 0
0 0 0 0 0 0 0 0 0 0 0 0 0 0 0 0 0 0 0 0 0 0 0 0 0 0 0 0 0 0 0 0 0 0 0 0 0 0 0 0 0 0 0 0 0 0 0 0 0
0 0 0 0 0 0 0 0 0 0 0 0 0 0 0 0 0 0 0 0 0 0 0 0 0 0 0 0 0 0 0 0 0 0 0 0 0 0 0 0 0 0 0 0 0 0 0 0 0
0 0 0 0 0 0 0 0 0 0 0 0 0 0 0 0 0 0 0 0 0 0 0 0 0 0 0 0 0 0 0 0 0 0 0 0 0 0 0 0 0 0 0 0 0 0 0 0 0
0 0 0 0 0 0 0 0 0 0 0 0 0 0 0 0 0 0 0 0 0 0 0 0 0 0 0 0 0 0 0 0 0 0 0 0 0 0 0 0 0 0 0 0 0 0 0 0 0
0 0 0 0 0 0 0 0 0 0 0 0 0 0 0 0 0 0 0 0 0 0 0 0 0 0 0 0 0 0 0 0 0 0 0 0 0 0 0 0 0 0 0 0 0 0 0 0 0
0 0 0 0 0 0 0 0 0 0 0 0 0 0 0 0 0 0 0 0 0 0 0 0 0 0 0 0 0 0 0 0 0 0 0 0 0 0 0 0 0 0 0 0 0 0 0 0 0
0 0 0 0 0 0 0 0 0 0 0 0 0 0 0 0 0 0 0 0 0 0 0 0 0 0 0 0 0 0 0 0 0 0 0 0 0 0 0 0 0 0 0 0 0 0 0 0 0
0 0 0 0 0 0 0 0 0 0 0 0 0 0 0 0 0 0 0 0 0 0 0 0 0 0 0 0 0 0 0 0 0 0 0 0 0 0 0 0 0 0 0 0 0 0 0 0 0
0 0 0 0 0 0 0 0 0 0 0 0 0 0 0 0 0 0 0 0 0 0 0 0 0 0 0 0 0 0 0 0 0 0 0 0 0 0 0 0 0 0 0 0 0 0 0 0 0
0 0 0 0 0 0 0 0 0 0 0 0 0 0 0 0 0 0 0 0 0 0 0 0 0 0 0 0 0 0 0 0 0 0 0 0 0 0 0 0 0 0 0 0 0 0 0 0 0
0 0 0 0 0 0 0 0 0 0 0 0 0 0 0 0 0 0 0 0 0 0 0 0 0 0 0 0 0 0 0 0 0 0 0 0 0 0 0 0 0 0 0 0 0 0 0 0 0
Wind_Speed
3 3 3 3 5 4 1 1 2 2 1 2 1 2 4 5 6 5 4 7 7 14 17 19 18 17 15 14 13 11 10 9 8 8 8 8 8 9 9 9 9 10 10 11 11 12 12 12 12
3 3 4 4 5 4 2 1 2 4 3 1 2 3 3 2 2 2 4 8 9 14 16 16 19 17 16 14 13 12 11 10 9 9 8 8 8 8 8 8 8 9 9 10 10 10 11 11 11
2 3 4 4 6 4 1 2 5 3 1 3 3 3 4 3 1 2 4 10 11 14 15 16 19 18 16 15 14 13 11 10 9 9 8 7 7 7 7 7 8 8 8 8 9 9 9 10 10
4 4 4 6 5 3 2 3 5 3 2 3 3 3 2 1 2 4 5 11 12 15 15 17 19 18 17 16 15 13 12 11 10 9 8 7 7 7 7 6 6 6 7 7 7 8 8 8 8
3 4 7 6 5 2 2 4 3 3 1 2 4 4 1 5 2 2 5 11 12 15 14 16 19 18 17 16 15 14 13 12 10 9 8 8 7 6 6 6 5 5 5 5 6 6 6 6 7
3 4 6 7 6 3 3 2 3 2 1 2 3 4 2 6 2 3 5 9 11 13 14 15 19 18 17 16 16 15 13 12 11 10 9 8 7 6 6 5 5 4 4 4 4 4 5 5 5
3 5 5 5 5 5 2 1 3 2 3 2 2 5 2 6 4 3 6 8 10 12 13 13 15 16 17 16 15 15 14 13 12 10 9 8 7 7 6 6 5 4 3 2 2 2 3 3 3
1 4 6 6 6 5 1 2 2 4 4 1 3 6 4 6 4 4 6 7 9 11 13 13 14 14 14 14 14 14 13 12 12 11 9 8 7 7 6 7 6 5 3 3 2 1 0 1 1
3 7 7 6 6 4 2 4 2 2 4 4 5 6 4 4 4 5 7 9 10 11 12 13 13 13 12 12 12 13 12 11 10 10 9 8 7 7 6 6 6 5 5 5 4 4 3 3 2
4 8 9 5 5 5 4 5 5 5 8 8 7 5 2 3 5 7 9 11 13 14 14 13 12 12 11 9 9 9 9 9 9 8 9 7 6 5 4 5 6 5 4 5 5 5 5 6 4
4 7 5 5 5 5 5 5 4 7 9 8 9 9 4 5 7 9 10 10 11 11 13 13 13 11 11 8 8 6 6 6 8 9 8 6 6 5 5 4 5 6 5 6 4 6 5 6 5
5 5 4 3 3 4 6 5 5 8 8 7 7 8 7 7 7 8 9 8 8 10 12 13 13 12 11 10 8 7 6 6 6 7 9 7 5 5 5 5 5 5 5 6 6 5 7 8 8
6 4 4 4 4 6 7 9 8 7 5 5 4 4 5 6 6 5 6 7 8 10 11 13 13 14 12 10 8 8 8 7 8 7 8 9 7 7 7 6 6 7 6 6 7 8 9 9 9
2 4 6 7 7 4 5 5 4 2 2 3 3 4 5 5 4 3 4 6 8 9 10 11 13 14 13 11 10 8 8 8 8 7 9 10 8 7 7 8 7 7 7 7 8 9 9 8 8
2 6 8 4 3 2 4 5 4 2 2 2 5 6 7 7 5 4 2 3 5 6 8 10 11 12 13 13 12 8 7 8 8 8 9 10 10 9 8 8 8 8 8 9 9 10 9 9 9
4 5 5 3 1 2 5 3 5 1 1 3 5 7 8 9 9 8 5 2 1 3 5 7 7 10 11 10 10 8 7 8 8 8 8 11 12 11 10 9 9 9 8 7 8 9 9 9 10
6 5 4 3 2 1 5 5 3 1 0 3 5 7 8 10 12 11 9 7 5 4 5 5 6 7 8 8 7 7 6 7 7 7 7 9 11 11 10 9 9 9 7 8 8 9 9 10 11
4 5 4 4 1 3 6 7 2 1 2 4 6 7 8 10 11 11 11 10 9 8 7 6 5 5 5 5 5 4 6 6 6 7 8 10 9 10 10 9 11 10 8 9 9 11 10 10 10
3 5 7 5 1 4 6 7 4 1 5 7 8 8 9 10 9 10 11 11 11 10 9 7 6 5 4 3 3 3 4 5 5 6 9 10 10 10 10 9 10 9 9 11 12 10 11 10 8
6 7 8 4 1 4 6 6 2 4 6 6 8 8 9 10 11 11 11 11 12 11 10 8 7 5 4 3 2 1 2 3 3 4 6 8 9 9 8 10 9 9 8 11 11 10 8 7 7
8 9 7 4 1 3 5 4 6 6 6 6 6 7 8 9 11 11 11 12 11 11 9 7 7 6 4 3 2 1 1 2 2 3 3 5 6 8 9 10 9 9 9 9 10 10 11 9 8
7 5 6 4 5 3 3 4 8 10 10 9 8 8 9 9 10 10 11 11 10 9 8 8 8 6 5 3 1 1 1 2 3 3 3 4 5 6 7 8 9 9 8 10 10 10 9 11 10
2 3 3 3 5 6 5 7 7 12 14 14 12 10 9 9 9 10 9 9 9 8 7 7 7 7 5 3 1 1 2 3 3 4 4 4 3 4 5 7 7 8 8 10 11 10 11 10 11
6 5 3 2 4 7 4 7 6 11 18 18 15 12 11 10 9 9 8 8 7 6 6 6 6 6 5 3 2 2 3 4 4 5 5 4 3 3 4 5 7 8 8 9 10 10 12 12 13
6 5 4 5 5 3 3 6 6 6 10 16 17 15 13 11 10 10 9 8 7 6 5 5 5 5 4 3 3 3 3 4 5 6 5 6 5 5 6 5 7 7 8 9 10 11 12 13 14
7 6 6 4 3 1 4 7 1 4 3 7 12 14 13 12 10 9 8 7 6 5 4 4 4 4 4 3 3 3 3 3 4 5 6 6 6 6 8 8 9 10 10 10 10 10 12 12 14
7 6 2 3 1 5 5 5 4 4 5 8 12 15 15 13 11 9 8 6 5 5 4 4 3 3 3 3 3 3 4 4 5 6 6 6 7 7 9 10 11 11 12 12 12 11 13 13 14
2 5 5 5 5 6 5 6 4 8 9 11 15 17 15 12 10 9 8 6 5 4 4 4 3 3 3 3 3 3 5 6 6 7 8 8 9 9 11 11 12 12 13 13 13 13 13 15 15
7 5 4 3 4 5 5 3 1 4 7 12 15 15 14 12 11 9 8 6 5 4 4 3 2 2 3 4 4 5 6 6 7 7 8 9 10 11 12 12 13 14 14 14 14 15 16 17 17
5 6 8 6 6 5 5 5 4 3 4 9 12 12 11 11 10 9 8 7 5 4 3 2 1 2 3 4 5 6 7 7 8 9 10 10 11 12 12 13 14 14 15 15 16 17 17 17 18
Wind_Direction
262 265 244 232 234 232 236 72 0 3 353 35 28 266 320 346 348 11 72 155 151 157 163 168 169 167 167 164 158 155 151 144 137 130 120 113 108 101 93 87 82 77 73 70 67 67 66 64 63
270 243 220 228 243 225 167 92 1 4 23 114 193 231 266 306 319 0 111 157 162 160 164 168 166 169 169 166 161 159 156 150 144 135 127 123 116 107 101 95 89 82 77 72 70 70 70 67 65
216 249 218 214 233 239 156 61 356 359 264 223 205 231 298 353 99 56 78 155 164 163 168 164 167 171 171 169 165 164 162 158 154 146 140 133 124 114 107 101 93 86 81 75 71 70 72 71 67
216 197 205 226 214 222 290 352 345 322 186 215 248 237 211 57 37 51 113 161 165 166 170 165 171 172 173 172 170 169 168 165 163 157 154 148 137 126 116 109 101 94 88 80 74 71 70 74 72
229 204 204 216 219 217 283 328 317 295 211 184 242 279 263 115 89 83 146 166 170 168 171 168 173 175 176 176 174 173 173 172 171 167 166 159 150 141 131 125 116 107 97 88 80 73 69 69 71
190 209 217 220 223 244 273 283 274 273 223 191 234 272 291 108 112 104 155 172 174 170 173 170 176 179 179 180 179 178 179 179 178 176 176 170 163 156 150 146 138 129 114 97 83 74 68 63 66
215 212 230 240 246 255 277 199 266 299 264 224 229 270 254 121 74 117 159 170 176 175 178 177 178 182 184 185 184 183 185 185 185 184 185 181 176 175 172 166 163 158 143 123 99 77 62 55 58
279 225 227 238 252 267 202 201 256 280 304 56 231 266 299 84 91 135 154 170 178 182 186 185 184 183 186 187 188 188 190 191 192 190 190 187 187 191 189 188 181 182 183 182 187 194 241 9 15
245 239 242 245 256 269 201 243 242 254 265 230 234 279 18 90 142 162 168 179 186 191 194 193 192 187 189 190 185 190 192 195 197 196 188 193 206 201 197 193 185 204 211 216 223 232 236 236 232
224 243 250 251 253 275 260 262 283 251 261 263 254 237 175 192 201 205 203 197 194 195 196 197 197 193 192 190 189 196 197 197 204 206 200 206 213 213 213 160 200 218 231 234 241 242 228 237 242
230 251 255 235 245 265 264 263 256 265 276 290 300 309 288 242 232 231 228 218 206 198 195 201 200 198 198 193 197 197 198 199 206 210 208 209 212 212 219 214 201 213 220 233 217 231 239 250 260
239 245 249 252 210 236 259 270 257 255 287 336 314 306 294 266 252 242 239 228 210 205 201 201 202 202 204 204 200 203 203 203 205 206 212 211 215 223 228 231 234 234 228 239 244 250 250 253 254
237 256 244 251 248 261 267 261 273 271 312 326 323 318 307 293 279 257 248 237 218 211 206 204 204 204 204 209 210 210 211 210 211 211 214 220 223 227 231 237 238 242 245 243 247 253 258 258 258
257 259 266 271 264 246 252 260 230 264 360 3 16 11 359 345 327 295 244 234 223 215 209 203 205 207 206 209 214 215 217 215 222 218 222 223 230 235 237 244 244 248 248 251 255 259 263 263 261
254 271 265 232 227 208 233 232 195 56 337 39 48 45 38 34 29 12 332 260 232 214 207 203 205 208 210 214 218 223 223 224 226 227 229 229 234 240 243 249 250 250 251 253 256 262 265 266 266
225 246 241 154 198 179 247 249 134 66 346 59 56 57 53 50 45 37 30 29 171 180 184 189 194 206 211 215 220 223 228 232 234 236 236 236 240 244 249 252 255 256 256 254 255 259 259 260 262
220 236 231 179 148 231 252 265 137 8 263 99 84 73 64 59 48 43 47 59 81 113 136 158 179 193 203 212 219 228 235 238 243 243 243 243 245 246 248 254 259 261 255 254 257 259 259 266 268
218 225 232 247 154 268 260 262 272 12 175 131 111 92 77 63 49 47 56 65 76 87 102 121 146 167 177 193 211 220 235 242 245 246 246 248 247 246 249 254 258 260 254 253 254 257 261 262 272
248 249 260 270 336 271 262 271 283 165 161 142 125 108 92 79 70 65 67 73 79 81 88 97 114 133 152 163 189 213 231 239 242 246 254 254 252 250 247 253 258 254 251 255 260 261 263 263 265
227 247 260 258 187 267 279 276 225 161 153 140 131 119 111 104 89 77 74 73 74 76 80 88 97 116 140 152 171 228 275 277 280 268 262 259 257 254 251 253 257 257 255 258 260 259 259 264 252
226 242 257 265 231 211 276 223 170 155 146 139 136 129 121 110 102 92 84 79 76 71 72 79 85 99 114 136 152 177 235 247 244 259 271 274 269 262 255 256 259 259 256 259 260 256 250 254 256
244 234 238 236 259 240 264 252 176 174 172 169 159 151 135 124 112 103 96 87 79 76 76 80 83 86 96 128 163 212 306 332 347 335 316 303 285 274 267 264 263 263 258 257 259 255 252 253 258
202 104 171 227 253 265 219 247 183 179 190 183 172 161 148 137 125 115 105 98 91 85 82 83 85 81 82 90 83 314 323 331 329 321 313 312 302 285 275 270 266 262 260 259 260 259 252 246 248
137 132 121 183 228 246 206 229 208 191 200 185 175 171 163 152 140 129 121 116 106 97 90 87 87 80 75 74 66 12 347 331 326 326 324 319 311 298 283 275 268 264 262 261 260 259 256 251 251
187 217 230 217 214 228 140 237 251 178 196 190 180 176 170 164 157 149 143 134 120 107 97 93 89 81 71 62 44 21 352 333 327 328 324 318 312 307 307 294 282 276 270 268 266 263 260 256 254
196 232 256 277 275 259 189 241 234 127 163 197 186 177 173 173 168 160 152 141 128 114 102 94 84 74 57 40 25 10 352 330 327 321 313 309 306 306 307 299 290 285 281 276 270 267 263 262 260
176 209 293 289 294 272 243 256 244 162 192 191 186 181 181 178 174 168 159 150 137 122 102 85 76 66 46 23 0 349 341 328 321 313 306 302 299 301 299 296 292 289 286 282 279 271 271 268 265
297 152 171 219 249 257 255 250 234 187 193 186 186 185 182 177 176 171 164 154 140 123 108 90 70 53 29 3 357 331 325 322 313 306 304 302 301 299 296 295 293 291 288 285 281 278 276 275 272
163 181 206 211 268 268 272 255 151 200 187 185 187 185 181 179 177 170 160 149 140 132 122 102 74 42 12 353 339 325 323 317 309 303 303 303 300 298 296 295 294 292 290 289 286 282 281 279 277
228 211 196 222 219 235 273 276 103 214 201 192 185 181 178 173 167 161 156 152 148 139 124 105 63 13 354 340 326 321 316 311 306 305 304 303 300 298 296 294 291 289 289 288 288 287 285 282 280